User: anonymous   Login
Location: Unspecified
(0.0000°N, 0.0000°E)
Time: 00:05:38
(UTC+00:00)
Language:

KUIPER-00037 - Orbit

View from above orbital plane
View from above orbital plane
View from above satellite
View from above satellite

Ground track
Ground track

The orbit is defined by the following mean orbital elements,

1 63749U          26145.58335647 +.00000000 +00000-0 -41384-2 0 00004
2 63749  51.8986 131.9500 0000675 101.7459 235.7810 14.82214462    02
Epoch (UTC): 25 May 2026 14:00:01
Eccentricity: 0.0000675
inclination: 51.8986°
perigee height: 622 km
apogee height: 623 km
right ascension of ascending node: 131.9500°
argument of perigee: 101.7459°
revolutions per day: 14.82214462
mean anomaly at epoch: 235.7810°

The dashed part of the orbit path shows where the satellite is in the earth's shadow,  

DLR